Weather History for KALS - August, 2012

Change the Weather History Date:

Friday, August 24, 2012

  Actual Average Record
Temperature  
Mean Temperature 60 °F 62 °F  
Max Temperature 77 °F 79 °F 89 °F (2011)
Min Temperature 43 °F 45 °F 33 °F (2002)
Degree Days  
Heating Degree Days 5 4  
Month to date heating degree days 41 54  
Since 1 June heating degree days 114 267  
Since 1 July heating degree days 55 99  
Cooling Degree Days 0 0  
Month to date cooling degree days 9 12  
Year to date cooling degree days 112 50  
Since 1 June cooling degree days 112 50  
Growing Degree Days 10 (Base 50)    
Moisture  
Dew Point 46 °F    
Average Humidity 66    
Maximum Humidity 100    
Minimum Humidity 31    
Precipitation  
Precipitation 0.00 in 0.04 in 1.08 in (1992)
Month to date precipitation 0.50 0.98  
Year to date precipitation 3.22 4.66  
Snow  
Snow 0.00 in 0.00 in 0.00 in (2002)
Month to date snowfall 0.0 0.0  
Since 1 June snowfall 0.0 0.0  
Since 1 July snowfall 0.0 0.0  
Snow Depth 0.00 in    
Sea Level Pressure  
Sea Level Pressure 29.90 in    
Wind  
Wind Speed 7 mph (NW)    
Max Wind Speed 23 mph    
Max Gust Speed 28 mph    
Visibility 10 miles    
Events      
T = Trace of Precipitation, MM = Missing Value Source: NWS Daily Summary

Daily Weather History Graph

Daily Weather History Graph

Search for Another Location

Airport or City:

Trip Planner

Search our weather history database for the weather conditions in past years. The results will help you decide how hot, cold, wet, or windy it might be!

Date:

Astronomy

Aug. 24, 2012 Rise Set
Actual Time 6:27 AM MDT 7:43 PM MDT
Civil Twilight 6:00 AM MDT 8:10 PM MDT
Nautical Twilight 5:27 AM MDT 8:42 PM MDT
Astronomical Twilight 4:54 AM MDT 9:16 PM MDT
Moon 2:12 PM MDT (8/24) No Moon Set
Length of Visible Light 14h 09m
Length of Day
13h 15m
First Quarter, 52% of the Moon is Illuminated
Aug 24
First Quarter
Aug 31
Full
Sep 8
Last Quarter
Sep 15
New
Sep 22
First Quarter

Hourly Weather History & Observations

Time (MDT) Temp. Windchill Dew Point Humidity Pressure Visibility Wind Dir Wind Speed Gust Speed Precip Events Conditions
12:52 AM 50.0 °F - 48.0 °F 93% 29.91 in 10.0 mi SE 4.6 mph - N/A   Clear
1:52 AM 48.0 °F - 46.0 °F 93% 29.90 in 10.0 mi South 4.6 mph - N/A   Scattered Clouds
2:52 AM 48.0 °F - 46.0 °F 93% 29.91 in 10.0 mi West 5.8 mph - N/A   Clear
3:52 AM 46.0 °F - 45.0 °F 96% 29.90 in 10.0 mi Calm Calm - N/A   Clear
4:52 AM 45.0 °F 42.6 °F 44.1 °F 97% 29.91 in 10.0 mi SE 4.6 mph - N/A   Mostly Cloudy
5:52 AM 45.0 °F 43.5 °F 43.0 °F 93% 29.94 in 10.0 mi SW 3.5 mph - N/A   Partly Cloudy
6:52 AM 44.1 °F 42.5 °F 43.0 °F 96% 29.97 in 10.0 mi NNE 3.5 mph - N/A   Clear
7:52 AM 51.1 °F - 46.9 °F 86% 29.96 in 10.0 mi Calm Calm - N/A   Clear
8:52 AM 55.0 °F - 48.0 °F 77% 29.95 in 10.0 mi Calm Calm - N/A   Clear
9:52 AM 60.1 °F - 48.9 °F 67% 29.93 in 10.0 mi Calm Calm - N/A   Mostly Cloudy
10:52 AM 66.0 °F - 50.0 °F 56% 29.90 in 10.0 mi NNW 10.4 mph - N/A   Mostly Cloudy
11:52 AM 68.0 °F - 50.0 °F 52% 29.89 in 10.0 mi NNW 11.5 mph - N/A   Mostly Cloudy
12:52 PM 71.1 °F - 48.9 °F 45% 29.88 in 10.0 mi North 10.4 mph - N/A   Scattered Clouds
1:52 PM 73.0 °F - 48.0 °F 41% 29.86 in 10.0 mi North 12.7 mph - N/A   Partly Cloudy
2:52 PM 75.0 °F - 42.1 °F 31% 29.83 in 10.0 mi North 13.8 mph 21.9 mph N/A   Clear
3:52 PM 75.9 °F - 42.1 °F 30% 29.83 in 10.0 mi NNW 15.0 mph 20.7 mph N/A   Partly Cloudy
4:52 PM 75.9 °F - 42.1 °F 30% 29.82 in 10.0 mi NNE 13.8 mph 19.6 mph N/A   Partly Cloudy
5:52 PM 72.0 °F - 44.1 °F 37% 29.84 in 10.0 mi NNW 18.4 mph 27.6 mph N/A   Overcast
6:52 PM 70.0 °F - 44.1 °F 39% 29.87 in 10.0 mi North 8.1 mph - N/A   Overcast
7:52 PM 64.0 °F - 46.9 °F 54% 29.88 in 10.0 mi SSE 9.2 mph - N/A   Overcast
8:52 PM 62.1 °F - 46.9 °F 58% 29.89 in 10.0 mi WSW 5.8 mph - N/A   Overcast
9:52 PM 57.9 °F - 46.0 °F 65% 29.91 in 10.0 mi SSW 3.5 mph - N/A   Clear
10:52 PM 57.0 °F - 45.0 °F 64% 29.90 in 10.0 mi Calm Calm - N/A   Clear
11:52 PM 52.0 °F - 43.0 °F 71% 29.91 in 10.0 mi West 3.5 mph - N/A   Clear